This is the latest recevied weather packets stored in our database for station/object SP2FH-13. If no packets are shown the sender has not sent any weather packets the latest 10 day(s).
| Time | Temp. | Humidity | Pressure | Rain* | Wind** | Luminosity | Snow |
|---|---|---|---|---|---|---|---|
| 1777716497 | 22.78° C | 30% | 1012.4 hPa | - | - | 729 W/m² | - |
| 1777716196 | 22.22° C | 30% | 1012.4 hPa | - | - | 724 W/m² | - |
| 1777715895 | 22.78° C | 30% | 1012.5 hPa | - | - | 724 W/m² | - |
| 1777715594 | 21.67° C | 31% | 1012.5 hPa | - | - | 718 W/m² | - |
| 1777715293 | 21.67° C | 31% | 1012.6 hPa | - | - | 713 W/m² | - |
| 1777714992 | 21.67° C | 31% | 1012.7 hPa | - | - | 713 W/m² | - |
| 1777714691 | 21.67° C | 29% | 1012.7 hPa | - | - | 710 W/m² | - |
| 1777714389 | 21.67° C | 31% | 1012.8 hPa | - | - | 705 W/m² | - |
| 1777714089 | 21.11° C | 31% | 1012.8 hPa | - | - | 699 W/m² | - |
| 1777713788 | 21.11° C | 32% | 1012.8 hPa | - | - | 695 W/m² | - |
| 1777713487 | 21.11° C | 33% | 1013 hPa | - | - | 694 W/m² | - |
| 1777713186 | 20.56° C | 34% | 1012.9 hPa | - | - | 689 W/m² | - |
| 1777712885 | 21.11° C | 32% | 1013 hPa | - | - | 682 W/m² | - |
| 1777712584 | 21.11° C | 37% | 1013 hPa | - | - | 676 W/m² | - |
| 1777712283 | 20.56° C | 37% | 1013 hPa | - | - | 662 W/m² | - |
| 1777711982 | 20° C | 35% | 1013.1 hPa | - | - | 657 W/m² | - |
| 1777711681 | 20.56° C | 38% | 1013.2 hPa | - | - | 648 W/m² | - |
| 1777711380 | 20.56° C | 36% | 1013.2 hPa | - | - | 642 W/m² | - |
| 1777711079 | 20° C | 37% | 1013.2 hPa | - | - | 632 W/m² | - |
| 1777710778 | 19.44° C | 39% | 1013.3 hPa | - | - | 621 W/m² | - |
| 1777710476 | 19.44° C | 40% | 1013.3 hPa | - | - | 612 W/m² | - |
| 1777710175 | 19.44° C | 39% | 1013.4 hPa | - | - | 601 W/m² | - |
| 1777709873 | 19.44° C | 41% | 1013.4 hPa | - | - | 590 W/m² | - |
| 1777709572 | 19.44° C | 39% | 1013.4 hPa | - | - | 581 W/m² | - |
| 1777709272 | 18.89° C | 38% | 1013.4 hPa | - | - | 571 W/m² | - |
* Rain since midnight (hover to see other rain measurements)
** Current wind speed in m/s (hover to see current wind gust speed)